Weather History for KOWD - October, 2013

Change the Weather History Date:

Wednesday, October 16, 2013

  Actual Average (KBOS) Record (KBOS)
Temperature  
Mean Temperature 50 °F 54 °F  
Max Temperature 63 °F 61 °F 88 °F (1897)
Min Temperature 37 °F 46 °F 30 °F (1883)
Degree Days  
Heating Degree Days 16 11  
Month to date heating degree days 144  
Since 1 July heating degree days 241  
Cooling Degree Days 0 0  
Month to date cooling degree days 6  
Year to date cooling degree days 746  
Moisture  
Dew Point 49 °F    
Average Humidity 90    
Maximum Humidity 100    
Minimum Humidity 72    
Precipitation  
Precipitation 0.00 in 0.13 in 2.64 in (1974)
Month to date precipitation 2.04  
Year to date precipitation 34.10  
Snow  
Snow 0.00 in 0.00 in 0.00 in (2009)
Month to date snowfall 0.0  
Since 1 July snowfall 0.0  
Since 1 September snowfall 0.0  
Snow Depth -    
Sea Level Pressure  
Sea Level Pressure 30.07 in    
Wind  
Wind Speed 1 mph (NE)    
Max Wind Speed 8 mph    
Max Gust Speed -    
Visibility 6 miles    
Events Fog    
T = Trace of Precipitation, MM = Missing Value Source: NWS Daily Summary

Daily Weather History Graph

Daily Weather History Graph

Search for Another Location

Airport or City:

Trip Planner

Search our weather history database for the weather conditions in past years. The results will help you decide how hot, cold, wet, or windy it might be!

Date:

Astronomy

Oct. 16, 2013 Rise Set
Actual Time 6:58 AM EDT 6:00 PM EDT
Civil Twilight 6:30 AM EDT 6:29 PM EDT
Nautical Twilight 5:57 AM EDT 7:01 PM EDT
Astronomical Twilight 5:25 AM EDT 7:34 PM EDT
Moon 4:40 PM EDT (10/16) 4:20 AM EDT (10/16)
Length of Visible Light 11h 58m
Length of Day
11h 02m
Waxing Gibbous, 94% of the Moon is Illuminated
Oct 16
Waxing Gibbous
Oct 18
Full
Oct 26
Last Quarter
Nov 3
New
Nov 10
First Quarter

Hourly Weather History & Observations

Time (EDT) Temp. Windchill Dew Point Humidity Pressure Visibility Wind Dir Wind Speed Gust Speed Precip Events Conditions
12:10 AM 44.6 °F - 42.8 °F 93% 30.17 in 1.8 mi Calm Calm - N/A   Clear
12:15 AM 44.6 °F - 42.8 °F 93% 30.17 in 0.8 mi Calm Calm - N/A   Mist
12:53 AM 42.1 °F - 41.0 °F 96% 30.17 in 0.2 mi Calm Calm - N/A Fog Fog
1:22 AM 42.8 °F - 42.8 °F 100% 30.16 in 0.2 mi Calm Calm - N/A Fog Fog
1:53 AM 41.0 °F - 39.9 °F 96% 30.16 in 0.2 mi Calm Calm - N/A Fog Fog
2:06 AM 42.8 °F - 41.0 °F 93% 30.16 in 0.2 mi Calm Calm - N/A Fog Fog
2:53 AM 41.0 °F - 39.9 °F 96% 30.14 in 0.2 mi Calm Calm - N/A Fog Fog
3:43 AM 42.8 °F 39.3 °F 41.0 °F 93% 30.13 in 2.0 mi NW 5.8 mph - N/A   Mostly Cloudy
3:48 AM 42.8 °F - 42.8 °F 100% 30.13 in 8.0 mi Calm Calm - N/A   Scattered Clouds
3:53 AM 42.1 °F - 42.1 °F 100% 30.13 in 9.0 mi Calm Calm - N/A   Scattered Clouds
4:37 AM 42.8 °F - 42.8 °F 100% 30.15 in 1.5 mi Calm Calm - N/A   Partly Cloudy
4:42 AM 42.8 °F - 42.8 °F 100% 30.15 in 0.8 mi Calm Calm - N/A   Mist
4:53 AM 39.0 °F - 37.9 °F 96% 30.15 in 0.5 mi Calm Calm - N/A Fog Fog
5:17 AM 37.4 °F 34.9 °F 37.4 °F 100% 30.13 in 0.2 mi ESE 3.5 mph - N/A Fog Fog
5:53 AM 42.1 °F - 42.1 °F 100% 30.12 in 1.5 mi Calm Calm - N/A   Overcast
5:56 AM 42.8 °F - 42.8 °F 100% 30.12 in 3.0 mi Calm Calm - N/A   Overcast
6:02 AM 42.8 °F - 41.0 °F 93% 30.12 in 1.5 mi Calm Calm - N/A   Overcast
6:11 AM 42.8 °F - 39.2 °F 87% 30.12 in 0.5 mi Calm Calm - N/A Fog Fog
6:53 AM 44.1 °F - 43.0 °F 96% 30.11 in 0.2 mi Calm Calm - N/A Fog Fog
7:53 AM 48.9 °F - 48.0 °F 97% 30.13 in 0.8 mi Calm Calm - N/A   Mist
8:53 AM 51.1 °F - 51.1 °F 100% 30.12 in 0.5 mi Calm Calm - N/A Fog Fog
9:26 AM 53.6 °F - 51.8 °F 94% 30.11 in 1.8 mi Calm Calm - N/A   Overcast
9:33 AM 53.6 °F - 53.6 °F 100% 30.11 in 2.5 mi Calm Calm - N/A   Overcast
9:43 AM 53.6 °F - 53.6 °F 100% 30.10 in 3.0 mi North 3.5 mph - N/A   Overcast
9:53 AM 55.0 °F - 53.1 °F 93% 30.10 in 4.0 mi NNW 3.5 mph - N/A   Mostly Cloudy
10:12 AM 55.4 °F - 53.6 °F 94% 30.09 in 5.0 mi North 3.5 mph - N/A   Overcast
10:29 AM 57.2 °F - 53.6 °F 88% 30.09 in 7.0 mi North 3.5 mph - N/A   Mostly Cloudy
10:53 AM 60.1 °F - 54.0 °F 80% 30.07 in 10.0 mi ENE 8.1 mph - N/A   Overcast
11:32 AM 62.6 °F - 53.6 °F 72% 30.06 in 10.0 mi North 4.6 mph - N/A   Scattered Clouds
11:53 AM 62.1 °F - 53.1 °F 72% 30.06 in 10.0 mi NE 5.8 mph - N/A   Mostly Cloudy
12:46 PM 60.8 °F - 53.6 °F 77% 30.04 in 10.0 mi NE 4.6 mph - N/A   Overcast
12:53 PM 61.0 °F - 54.0 °F 78% 30.03 in 10.0 mi NE 5.8 mph - N/A   Mostly Cloudy
1:08 PM 60.8 °F - 53.6 °F 77% 30.03 in 10.0 mi ENE 5.8 mph - N/A   Scattered Clouds
1:15 PM 60.8 °F - 53.6 °F 77% 30.02 in 10.0 mi NNE 4.6 mph - N/A   Mostly Cloudy
1:38 PM 60.8 °F - 53.6 °F 77% 30.01 in 10.0 mi ENE 5.8 mph - N/A   Scattered Clouds
1:53 PM 61.0 °F - 54.0 °F 78% 30.01 in 10.0 mi NNE 4.6 mph - N/A   Scattered Clouds
2:53 PM 61.0 °F - 54.0 °F 78% 30.00 in 10.0 mi ENE 4.6 mph - N/A   Clear
3:53 PM 60.1 °F - 54.0 °F 80% 29.99 in 10.0 mi NE 3.5 mph - N/A   Clear
4:36 PM 60.8 °F - 53.6 °F 77% 29.99 in 10.0 mi ENE 4.6 mph - N/A   Mostly Cloudy
4:53 PM 59.0 °F - 54.0 °F 83% 29.99 in 10.0 mi ENE 4.6 mph - N/A   Mostly Cloudy
5:00 PM 59.0 °F - 53.6 °F 82% 29.98 in 10.0 mi ENE 5.8 mph - N/A   Scattered Clouds
5:53 PM 57.9 °F - 54.0 °F 87% 29.98 in 10.0 mi Calm Calm - N/A   Clear
6:53 PM 55.9 °F - 53.1 °F 90% 29.97 in 10.0 mi Calm Calm - N/A   Partly Cloudy
7:53 PM 55.0 °F - 53.1 °F 93% 29.97 in 10.0 mi Calm Calm - N/A   Partly Cloudy
8:53 PM 54.0 °F - 52.0 °F 93% 29.96 in 10.0 mi Calm Calm - N/A   Partly Cloudy
9:10 PM 53.6 °F - 51.8 °F 94% 29.96 in 10.0 mi Calm Calm - N/A   Mostly Cloudy
9:53 PM 54.0 °F - 52.0 °F 93% 29.95 in 10.0 mi Calm Calm - N/A   Mostly Cloudy
10:03 PM 53.6 °F - 51.8 °F 94% 29.94 in 10.0 mi Calm Calm - N/A   Partly Cloudy
10:33 PM 53.6 °F - 51.8 °F 94% 29.93 in 9.0 mi Calm Calm - N/A   Mostly Cloudy
10:53 PM 54.0 °F - 52.0 °F 93% 29.93 in 8.0 mi Calm Calm - N/A   Overcast
11:53 PM 51.1 °F - 50.0 °F 96% 29.91 in 7.0 mi Calm Calm - N/A   Mostly Cloudy